Home   Weather   Conception Bay South   Past weeks

Flag for Canada Past Weather in Conception Bay South, Newfoundland and Labrador, Canada — Yesterday and Last 2 Weeks

Now
28 °F

Partly sunny.


Feels Like: 17 °F
Forecast: 23 / 33 °F
Wind: 16 mph from West

Location: St. John's

Current Time: Dec 8, 2016 at 2:45:13 pm

Latest Report: Dec 8, 2016 at 1:30 pm


Visibility: 15 mi

Pressure: 29.84 "Hg

Humidity: 74%

Dew Point: 21 °F

Location of Conception Bay SouthLocation

Past Weather in Conception Bay South — Graph

°F

Conception Bay South Temperature Yesterday

Maximum temperature yesterday: 25 °F (at 12:30 pm)
Minimum temperature yesterday: 19 °F (at 7:30 am)
Average temperature yesterday: 22 °F

High & Low Weather Summary for the Past Weeks

 TemperatureHumidityPressure
High48 °F (Nov 27, 11:30 pm)100% (Nov 24, 4:30 am)30.32 "Hg (Nov 24, 4:30 am)
Low19 °F (Dec 7, 7:30 am)54% (Dec 5, 2:30 pm)29.28 "Hg (Dec 3, 1:30 pm)
Average32 °F83%29.80 "Hg
* Reported Nov 23 1:30 pm — Dec 8 1:30 pm, Conception Bay South, Weather by CustomWeather, © 2016

Note: Actual official high and low records may vary slightly from our data, if they occured in-between our weather recording intervals... More about our weather records

Advertising

Conception Bay South Weather History for the Previous 24 Hours

Scroll right to see more
 ConditionsComfort  
Time TempWeatherWind HumidityBarometerVisibility
1:30 pm
Thu, Dec 8
28 °FPartly sunny.16 mph74%29.84 "Hg15 mi
12:30 pm27 °FPartly sunny.14 mph74%29.85 "Hg15 mi
11:30 am25 °FPartly sunny.14 mph80%29.86 "Hg15 mi
10:30 am23 °FPartly sunny.9 mph80%29.88 "Hg15 mi
9:30 am23 °FPartly sunny.9 mph80%29.88 "Hg15 mi
8:30 am21 °FBroken clouds.3 mph80%29.87 "Hg15 mi
7:30 am21 °FBroken clouds.7 mph80%29.86 "Hg15 mi
6:30 am21 °FPassing clouds.10 mph80%29.87 "Hg15 mi
5:30 am21 °FPassing clouds.10 mph80%29.86 "Hg15 mi
4:30 am21 °FPassing clouds.6 mph80%29.87 "Hg15 mi
3:30 am21 °FPassing clouds.8 mph80%29.86 "Hg15 mi
2:30 am21 °FPassing clouds.8 mph80%29.85 "Hg15 mi
1:30 am19 °FPassing clouds.7 mph86%29.83 "Hg15 mi
12:30 am21 °FPassing clouds.14 mph74%29.82 "Hg15 mi
11:30 pm
Wed, Dec 7
21 °FPassing clouds.10 mph80%29.83 "Hg15 mi
10:30 pm21 °FPassing clouds.14 mph80%29.82 "Hg15 mi
9:30 pm23 °FPassing clouds.9 mph74%29.81 "Hg15 mi
8:30 pm21 °FPassing clouds.12 mph74%29.81 "Hg15 mi
7:30 pm23 °FPassing clouds.12 mph74%29.80 "Hg15 mi
6:30 pm23 °FPassing clouds.8 mph74%29.78 "Hg15 mi
5:30 pm23 °FPassing clouds.16 mph74%29.77 "Hg15 mi
4:30 pm23 °FPassing clouds.10 mph74%29.76 "Hg15 mi
3:30 pm23 °FPartly sunny.14 mph74%29.74 "Hg15 mi
2:30 pm23 °FPartly sunny.16 mph74%29.72 "Hg15 mi
Weather by CustomWeather, © 2016

See weather overviewHow to use our weather pages